Mobridge, SD

10:41 PM CDT on May 28, 2017 (GMT -0500)
Mobridge Municipal

Weather History for KMBG - November, 2012

Change the Weather History Date:

Sunday, November 25, 2012

  Actual Average Record
Temperature  
Mean Temperature 24 °F 26 °F  
Max Temperature 36 °F 37 °F 73 °F (1960)
Min Temperature 12 °F 16 °F -10 °F (1977)
Degree Days  
Heating Degree Days 41 39  
Month to date heating degree days 782 791  
Since 1 July heating degree days 1539 1565  
Cooling Degree Days 0 0  
Month to date cooling degree days 0 0  
Year to date cooling degree days 866 644  
Moisture  
Dew Point 19 °F    
Average Humidity 79    
Maximum Humidity 96    
Minimum Humidity 61    
Precipitation  
Precipitation 0.00 in 0.01 in 0.41 in (1944)
Month to date precipitation 0.36 0.46  
Year to date precipitation 13.17 17.41  
Snow  
Snow 0.00 in - - ()
Month to date snowfall 0.5  
Since 1 July snowfall 0.5  
Snow Depth 0.00 in    
Sea Level Pressure  
Sea Level Pressure 30.09 in    
Wind  
Wind Speed 10 mph (NNW)    
Max Wind Speed 21 mph    
Max Gust Speed 26 mph    
Visibility 9 miles    
Events      
T = Trace of Precipitation, MM = Missing Value Source: NWS Daily Summary

Daily Weather History Graph

Daily Weather History Graph

Search for Another Location

Airport or City:

Trip Planner

Search our weather history database for the weather conditions in past years. The results will help you decide how hot, cold, wet, or windy it might be!

Date:

Astronomy

Nov. 25, 2012 Rise Set
Actual Time 7:54 AM CST 5:02 PM CST
Civil Twilight 7:21 AM CST 5:35 PM CST
Nautical Twilight 6:45 AM CST 6:12 PM CST
Astronomical Twilight 6:09 AM CST 6:47 PM CST
Moon 3:25 PM CST (11/25) 5:04 AM CST (11/25)
Length of Visible Light 10h 13m
Length of Day
9h 07m
Waxing Gibbous, 93% of the Moon is Illuminated
Nov 25
Waxing Gibbous
Nov 28
Full
Dec 6
Last Quarter
Dec 13
New
Dec 19
First Quarter

Hourly Weather History & Observations

Time (CST) Temp. Windchill Dew Point Humidity Pressure Visibility Wind Dir Wind Speed Gust Speed Precip Events Conditions
12:52 AM 28.0 °F 17.5 °F 24.1 °F 85% 30.00 in 10.0 mi NNW 12.7 mph - N/A   Clear
1:52 AM 26.1 °F 14.0 °F 23.0 °F 88% 30.01 in 10.0 mi NW 15.0 mph - N/A   Clear
2:52 AM 26.1 °F 13.1 °F 23.0 °F 88% 30.01 in 10.0 mi NNW 17.3 mph - N/A   Clear
3:15 AM 26.6 °F 15.2 °F 21.2 °F 80% 29.96 in 10.0 mi NNW 13.8 mph - N/A   Partly Cloudy
3:29 AM 24.8 °F 11.5 °F 23.0 °F 93% 29.96 in 10.0 mi NW 17.3 mph - N/A   Mostly Cloudy
3:52 AM 25.0 °F 12.6 °F 21.9 °F 88% 30.01 in 10.0 mi NNW 15.0 mph - N/A   Overcast
4:52 AM 25.0 °F 14.2 °F 21.9 °F 88% 30.02 in 10.0 mi North 11.5 mph - N/A   Overcast
5:52 AM 24.1 °F 13.7 °F 21.9 °F 91% 30.04 in 10.0 mi NNW 10.4 mph - N/A   Overcast
6:52 AM 23.0 °F 18.4 °F 21.0 °F 92% 30.04 in 9.0 mi NNW 3.5 mph - N/A   Overcast
7:52 AM 21.9 °F - 19.9 °F 92% 30.04 in 9.0 mi Calm Calm - N/A   Overcast
8:28 AM 21.2 °F 14.9 °F 19.4 °F 93% 29.99 in 6.0 mi NNW 4.6 mph - N/A   Scattered Clouds
8:38 AM 21.2 °F 14.9 °F 21.2 °F 100% 29.99 in 6.0 mi NNW 4.6 mph - N/A   Mostly Cloudy
8:52 AM 23.0 °F 14.7 °F 21.0 °F 92% 30.06 in 6.0 mi NNW 6.9 mph - N/A   Mostly Cloudy
9:03 AM 24.8 °F 19.1 °F 21.2 °F 86% 29.99 in 6.0 mi West 4.6 mph - N/A   Scattered Clouds
9:52 AM 25.0 °F - 21.9 °F 88% 30.06 in 10.0 mi Calm Calm - N/A   Clear
10:52 AM 28.0 °F 21.7 °F 21.9 °F 78% 30.07 in 10.0 mi WNW 5.8 mph - N/A   Clear
11:52 AM 30.0 °F 24.1 °F 24.1 °F 79% 30.07 in 10.0 mi WNW 5.8 mph - N/A   Clear
12:52 PM 36.0 °F 28.0 °F 24.1 °F 62% 30.06 in 10.0 mi North 11.5 mph - N/A   Mostly Cloudy
1:52 PM 33.1 °F 24.9 °F 24.1 °F 70% 30.06 in 10.0 mi North 10.4 mph - N/A   Overcast
2:52 PM 33.1 °F 24.4 °F 21.9 °F 64% 30.07 in 10.0 mi NW 11.5 mph - N/A   Overcast
3:52 PM 32.0 °F 22.5 °F 21.9 °F 66% 30.09 in 10.0 mi North 12.7 mph - N/A   Mostly Cloudy
4:49 PM 28.4 °F 16.6 °F 19.4 °F 69% 30.04 in 10.0 mi North 16.1 mph - N/A   Scattered Clouds
4:52 PM 27.0 °F 16.1 °F 19.0 °F 72% 30.11 in 10.0 mi North 12.7 mph - N/A   Partly Cloudy
5:52 PM 25.0 °F 13.1 °F 17.1 °F 72% 30.14 in 10.0 mi North 13.8 mph - N/A   Partly Cloudy
6:28 PM 24.8 °F 11.5 °F 15.8 °F 69% 30.10 in 10.0 mi North 17.3 mph 23.0 mph N/A   Mostly Cloudy
6:52 PM 23.0 °F 10.6 °F 15.1 °F 72% 30.19 in 10.0 mi NNW 13.8 mph - N/A   Scattered Clouds
7:52 PM 21.9 °F 10.4 °F 15.1 °F 75% 30.23 in 10.0 mi North 11.5 mph - N/A   Clear
8:52 PM 19.9 °F 8.6 °F 12.0 °F 71% 30.26 in 10.0 mi North 10.4 mph - N/A   Clear
9:52 PM 19.0 °F 6.8 °F 10.9 °F 71% 30.29 in 10.0 mi North 11.5 mph - N/A   Mostly Cloudy
10:47 PM 15.8 °F 3.4 °F 8.6 °F 73% 30.23 in 10.0 mi North 10.4 mph - N/A   Partly Cloudy
10:52 PM 15.1 °F 1.8 °F 8.1 °F 74% 30.32 in 10.0 mi North 11.5 mph - N/A   Partly Cloudy
11:52 PM 12.0 °F 0.5 °F 7.0 °F 80% 30.35 in 10.0 mi NNE 8.1 mph - N/A   Clear